Вернуться в каталог

LEMUR-2 CLARA

АктивенНаукаSSO
NORAD 68483·PAYLOAD·🇱🇺 Luxembourg

Запущен Mar 30, 2026 с Vandenberg Space Force Base

Loading…

Ближайшие Пролёты (ближайшие 24 часа)

TLE

СвежийSource: Space-Track

Эпоха: Sep 14, 2026, 19:39 UTC

1 68483U 26067BV  26257.81875902  .00003358  00000-0  32649-3 0  9998
2 68483  97.7738 215.0740 0003396  21.6485 338.4877 14.93236659 25104

Отслеживайте LEMUR-2 CLARA в реальном времени с AllMySat

Download on the App Store